DL9BGG-13 Weather Reports


time (UTC)temp
C
wind
direction
speed
KPH
gust
KPH
rain 1hr
cm
rain 24hr
cm
rain mn
cm
humidity
%
barometer
mb
20260903205916 18 247 8.0 0.0 0.00 0.05 0.00 87 1058.7
20260903205803 18 247 8.0 0.0 0.00 0.05 0.00 87 1058.6
20260903205649 18 247 9.7 0.0 0.00 0.05 0.00 87 1058.7
20260903205531 18 270 8.0 0.0 0.00 0.05 0.00 87 1058.6
20260903205426 18 270 9.7 0.0 0.00 0.05 0.00 87 1058.7
20260903205319 18 270 8.0 0.0 0.00 0.05 0.00 87 1058.6
20260903205212 18 292 9.7 0.0 0.00 0.05 0.00 86 1058.7
20260903205053 18 247 11.3 0.0 0.00 0.05 0.00 86 1058.7
20260903204939 18 247 9.7 0.0 0.00 0.05 0.00 86 1058.7
20260903204825 18 270 6.4 0.0 0.00 0.05 0.00 86 1058.7
20260903204711 18 270 6.4 0.0 0.00 0.05 0.00 86 1058.6
20260903204604 18 247 0.0 0.0 0.00 0.05 0.00 86 1058.6
20260903204450 18 225 8.0 0.0 0.00 0.05 0.00 86 1058.6
20260903204337 18 292 8.0 0.0 0.00 0.05 0.00 86 1058.7
20260903204225 18 292 9.7 0.0 0.00 0.05 0.00 86 1058.7
20260903204116 18 270 4.8 0.0 0.00 0.05 0.00 86 1058.7
20260903204002 18 247 6.4 0.0 0.00 0.05 0.00 86 1058.6
20260903203847 18 247 9.7 0.0 0.00 0.05 0.00 86 1058.7
20260903203725 18 247 19.3 0.0 0.00 0.05 0.00 86 1058.7
20260903203611 18 270 12.9 0.0 0.00 0.05 0.00 86 1058.6
20260903203505 18 270 6.4 0.0 0.00 0.05 0.00 86 1058.7
20260903203350 18 247 4.8 0.0 0.00 0.05 0.00 86 1058.6
20260903203238 18 270 8.0 0.0 0.00 0.05 0.00 86 1058.7
20260903203129 18 270 9.7 0.0 0.00 0.05 0.00 86 1058.7
20260903203008 18 247 6.4 0.0 0.00 0.05 0.00 86 1058.7
20260903202902 18 270 4.8 0.0 0.00 0.05 0.00 86 1058.7
20260903202756 18 247 11.3 0.0 0.00 0.05 0.00 86 1058.7
20260903202641 18 270 0.0 0.0 0.00 0.05 0.00 85 1058.7
20260903202512 18 270 6.4 0.0 0.00 0.05 0.00 85 1058.7
20260903202352 18 270 8.0 0.0 0.00 0.05 0.00 85 1058.8
20260903202247 18 292 6.4 0.0 0.00 0.05 0.00 85 1058.7
20260903202141 18 270 12.9 0.0 0.00 0.05 0.00 85 1058.7
20260903202035 18 270 6.4 0.0 0.00 0.05 0.00 85 1058.7
20260903201928 18 270 8.0 0.0 0.00 0.05 0.00 85 1058.7
20260903201818 18 270 8.0 0.0 0.00 0.05 0.00 85 1058.7
20260903201710 18 270 11.3 0.0 0.00 0.05 0.00 85 1058.7
20260903201557 18 270 9.7 0.0 0.00 0.05 0.00 86 1058.7
20260903201451 18 225 17.7 0.0 0.00 0.05 0.00 86 1058.7
20260903201330 18 247 6.4 0.0 0.00 0.05 0.00 86 1058.7
20260903201214 18 270 9.7 0.0 0.00 0.05 0.00 86 1058.8
20260903201100 18 270 11.3 0.0 0.00 0.05 0.00 86 1058.7
20260903200956 18 247 14.5 0.0 0.00 0.05 0.00 86 1058.8
20260903200851 18 247 8.0 0.0 0.00 0.05 0.00 86 1058.8
20260903200745 18 270 9.7 0.0 0.00 0.05 0.00 86 1058.8
20260903200639 18 270 9.7 0.0 0.00 0.05 0.00 86 1058.8
20260903200520 18 292 9.7 0.0 0.00 0.05 0.00 86 1058.8
20260903200414 18 292 9.7 0.0 0.00 0.05 0.00 86 1058.8
20260903200307 18 270 12.9 0.0 0.00 0.05 0.00 86 1058.8
20260903200157 18 270 3.2 0.0 0.00 0.05 0.00 86 1058.8
20260903200048 18 247 9.7 0.0 0.00 0.05 0.00 86 1058.8
20260903195934 18 292 0.0 0.0 0.00 0.05 0.00 86 1058.8
20260903195827 18 225 14.5 0.0 0.00 0.05 0.00 86 1058.8
20260903195709 18 270 6.4 0.0 0.00 0.05 0.00 86 1058.7
20260903195603 18 270 8.0 0.0 0.00 0.05 0.00 86 1058.7
20260903195448 18 315 4.8 0.0 0.00 0.05 0.00 87 1058.7
20260903195336 18 247 14.5 0.0 0.00 0.05 0.00 87 1058.7
20260903195217 18 337 1.6 0.0 0.00 0.05 0.00 87 1058.6
20260903195109 18 270 12.9 0.0 0.00 0.05 0.00 87 1058.7
20260903194947 18 315 8.0 0.0 0.00 0.05 0.00 87 1058.7
20260903194830 18 292 9.7 0.0 0.00 0.05 0.00 87 1058.7
20260903194722 18 292 8.0 0.0 0.00 0.05 0.00 87 1058.7
20260903194609 18 0 11.3 0.0 0.00 0.05 0.00 86 1058.7
20260903194456 18 270 11.3 0.0 0.00 0.05 0.00 86 1058.7
20260903194351 18 292 11.3 0.0 0.00 0.05 0.00 86 1058.8
20260903194245 18 270 0.0 0.0 0.00 0.05 0.00 86 1058.7
20260903194135 18 270 9.7 0.0 0.00 0.05 0.00 86 1058.8
20260903194027 18 270 0.0 0.0 0.00 0.05 0.00 86 1058.8
20260903193907 18 315 20.9 0.0 0.00 0.05 0.00 86 1058.8
20260903193803 18 292 6.4 0.0 0.00 0.05 0.00 86 1058.8
20260903193655 18 315 19.3 0.0 0.00 0.05 0.00 86 1058.8
20260903193542 18 292 9.7 0.0 0.00 0.05 0.00 86 1058.9
20260903193436 18 292 9.7 0.0 0.00 0.05 0.00 86 1058.9
20260903193329 18 292 9.7 0.0 0.00 0.05 0.00 86 1058.8
20260903193215 18 247 4.8 0.0 0.00 0.05 0.00 86 1058.8
20260903193102 18 225 6.4 0.0 0.00 0.05 0.00 86 1058.8
20260903192958 18 270 4.8 0.0 0.00 0.05 0.00 86 1058.9
20260903192850 18 292 6.4 0.0 0.00 0.05 0.00 86 1058.8
20260903192737 18 247 8.0 0.0 0.00 0.05 0.00 86 1058.7
20260903192624 18 292 6.4 0.0 0.00 0.05 0.00 86 1058.6
20260903192518 18 247 9.7 0.0 0.00 0.05 0.00 86 1058.7
20260903192413 18 270 9.7 0.0 0.00 0.05 0.00 86 1058.7
20260903192307 18 247 11.3 0.0 0.00 0.05 0.00 86 1058.7
20260903192200 18 270 8.0 0.0 0.00 0.05 0.00 86 1058.6
20260903192049 18 292 16.1 0.0 0.00 0.05 0.00 86 1058.6
20260903191935 18 315 12.9 0.0 0.00 0.05 0.00 86 1058.8
20260903191830 18 292 11.3 0.0 0.00 0.05 0.00 86 1058.6
20260903191724 18 270 3.2 0.0 0.00 0.05 0.00 86 1058.6
20260903191603 18 270 9.7 0.0 0.00 0.05 0.00 86 1058.7
20260903191433 18 247 9.7 0.0 0.00 0.05 0.00 86 1058.8
20260903191319 18 292 8.0 0.0 0.00 0.05 0.00 86 1058.8
20260903191150 18 270 0.0 0.0 0.00 0.05 0.00 86 1058.8
20260903191038 18 292 6.4 0.0 0.00 0.05 0.00 86 1058.7
20260903190908 18 270 4.8 0.0 0.00 0.05 0.00 86 1058.8
20260903190754 18 270 8.0 0.0 0.00 0.05 0.00 86 1058.7
20260903190649 18 270 20.9 0.0 0.00 0.05 0.00 86 1058.7
20260903190545 18 270 9.7 0.0 0.00 0.05 0.00 86 1058.7
20260903190438 18 292 6.4 0.0 0.00 0.05 0.00 86 1058.7
20260903190333 18 270 9.7 0.0 0.00 0.05 0.00 86 1058.7
20260903190226 18 292 11.3 0.0 0.00 0.05 0.00 86 1058.8
20260903190104 18 270 14.5 0.0 0.00 0.05 0.00 86 1058.7
20260903185950 18 247 16.1 0.0 0.00 0.05 0.00 86 1058.7
20260903185836 18 270 16.1 0.0 0.00 0.05 0.00 86 1058.6
20260903185731 18 225 6.4 0.0 0.00 0.05 0.00 86 1058.6
20260903185618 18 270 12.9 0.0 0.00 0.05 0.00 86 1058.6
20260903185505 18 247 11.3 0.0 0.00 0.05 0.00 86 1058.6
20260903185352 18 247 12.9 0.0 0.00 0.05 0.00 86 1058.6
20260903185244 18 247 8.0 0.0 0.00 0.05 0.00 86 1058.7
20260903185132 18 247 9.7 0.0 0.00 0.05 0.00 86 1058.7
20260903185026 18 292 6.4 0.0 0.00 0.05 0.00 86 1058.8
20260903184921 18 247 0.0 0.0 0.00 0.05 0.00 86 1058.8
20260903184815 18 270 11.3 0.0 0.00 0.05 0.00 86 1058.8
20260903184709 18 270 16.1 0.0 0.00 0.05 0.00 86 1058.7
20260903184603 18 270 9.7 0.0 0.00 0.05 0.00 86 1058.8
20260903184456 18 247 9.7 0.0 0.00 0.05 0.00 86 1058.8
20260903184334 18 270 0.0 0.0 0.00 0.05 0.00 86 1058.8
20260903184220 18 270 14.5 0.0 0.00 0.05 0.00 86 1058.8
20260903184057 18 292 11.3 0.0 0.00 0.05 0.00 85 1058.8
20260903183943 18 270 9.7 0.0 0.00 0.05 0.00 85 1058.7
20260903183821 18 315 0.0 0.0 0.00 0.05 0.00 85 1058.7
20260903183702 18 270 0.0 0.0 0.00 0.05 0.00 86 1058.7
20260903183554 18 292 6.4 0.0 0.00 0.05 0.00 86 1058.7
20260903183433 18 270 6.4 0.0 0.00 0.05 0.00 85 1058.7
20260903183306 18 247 16.1 0.0 0.00 0.05 0.00 85 1058.6
20260903183158 18 270 6.4 0.0 0.00 0.05 0.00 85 1058.6
20260903183044 18 292 9.7 0.0 0.00 0.05 0.00 84 1058.6
20260903182923 18 292 9.7 0.0 0.00 0.05 0.00 84 1058.7
20260903182818 18 247 12.9 0.0 0.00 0.05 0.00 84 1058.7
20260903182705 18 292 8.0 0.0 0.00 0.05 0.00 84 1058.9
20260903182559 18 247 9.7 0.0 0.00 0.05 0.00 84 1058.8
20260903182446 18 292 11.3 0.0 0.00 0.05 0.00 84 1058.8
20260903182340 18 292 12.9 0.0 0.00 0.05 0.00 84 1058.7
20260903182235 18 270 19.3 0.0 0.00 0.05 0.00 84 1058.8
20260903182122 18 270 9.7 0.0 0.00 0.05 0.00 84 1058.7
20260903182001 18 292 9.7 0.0 0.00 0.05 0.00 84 1058.7
20260903181848 18 270 6.4 0.0 0.00 0.05 0.00 84 1058.7
20260903181734 18 315 11.3 0.0 0.00 0.05 0.00 84 1058.7
20260903181614 18 270 12.9 0.0 0.00 0.05 0.00 84 1058.7
20260903181500 18 292 9.7 0.0 0.00 0.05 0.00 84 1058.7
20260903181332 18 292 6.4 0.0 0.00 0.05 0.00 84 1058.7
20260903181217 18 270 12.9 0.0 0.00 0.05 0.00 83 1058.7
20260903181055 18 292 0.0 0.0 0.00 0.05 0.00 83 1058.7
20260903180934 18 270 9.7 0.0 0.00 0.05 0.00 83 1058.7
20260903180813 18 292 19.3 0.0 0.00 0.05 0.00 83 1058.7
20260903180700 18 270 4.8 0.0 0.00 0.05 0.00 82 1058.6
20260903180546 18 270 12.9 0.0 0.00 0.05 0.00 82 1058.6
20260903180433 19 270 11.3 0.0 0.00 0.05 0.00 82 1058.6
20260903180320 19 225 8.0 0.0 0.00 0.05 0.00 82 1058.6
20260903180207 19 270 11.3 0.0 0.00 0.05 0.00 82 1058.5
20260903180053 19 270 8.0 0.0 0.00 0.05 0.00 82 1058.5
20260903175925 19 315 9.7 0.0 0.00 0.05 0.00 82 1058.5
20260903175806 19 270 9.7 0.0 0.00 0.05 0.00 82 1058.6
20260903175659 19 292 0.0 0.0 0.00 0.05 0.00 82 1058.7
20260903175553 19 292 11.3 0.0 0.00 0.05 0.00 81 1058.6
20260903175432 19 292 11.3 0.0 0.00 0.05 0.00 81 1058.6
20260903175318 19 292 14.5 0.0 0.00 0.05 0.00 81 1058.6
20260903175149 19 315 0.0 0.0 0.00 0.05 0.00 81 1058.6
20260903175036 19 315 8.0 0.0 0.00 0.05 0.00 81 1058.7
20260903174932 19 270 14.5 0.0 0.00 0.05 0.00 81 1058.7
20260903174827 19 292 9.7 0.0 0.00 0.05 0.00 82 1058.7
20260903174715 19 337 17.7 0.0 0.00 0.05 0.00 82 1058.7
20260903174600 19 0 4.8 0.0 0.00 0.05 0.00 82 1058.8
20260903174447 19 315 14.5 0.0 0.00 0.05 0.00 81 1058.8
20260903174334 19 270 20.9 0.0 0.00 0.05 0.00 81 1058.8
20260903174229 19 292 9.7 0.0 0.00 0.05 0.00 82 1058.7
20260903174116 19 270 17.7 0.0 0.00 0.05 0.00 82 1058.7
20260903174003 19 315 4.8 0.0 0.00 0.05 0.00 82 1058.7
20260903173858 19 270 24.1 0.0 0.00 0.05 0.00 82 1058.7
20260903173747 19 270 11.3 0.0 0.00 0.05 0.00 82 1058.8
20260903173641 19 315 6.4 0.0 0.00 0.05 0.00 82 1058.8
20260903173535 19 292 9.7 0.0 0.00 0.05 0.00 82 1058.8
20260903173430 19 292 6.4 0.0 0.00 0.05 0.00 82 1058.8
20260903173317 19 270 8.0 0.0 0.00 0.05 0.00 82 1058.8
20260903173211 19 292 8.0 0.0 0.00 0.05 0.00 82 1058.8
20260903173052 19 292 27.4 0.0 0.00 0.05 0.00 82 1058.8
20260903172945 19 270 14.5 0.0 0.00 0.05 0.00 81 1058.8
20260903172823 19 270 16.1 0.0 0.00 0.05 0.00 81 1058.8
20260903172703 19 292 14.5 0.0 0.00 0.05 0.00 81 1058.7
20260903172600 19 315 14.5 0.0 0.00 0.05 0.00 81 1058.7
20260903172455 19 315 11.3 0.0 0.00 0.05 0.00 81 1058.7
20260903172350 19 270 9.7 0.0 0.00 0.05 0.00 81 1058.7
20260903172235 19 292 12.9 0.0 0.00 0.05 0.00 80 1058.7
20260903172122 19 292 8.0 0.0 0.00 0.05 0.00 81 1058.7
20260903172017 19 270 6.4 0.0 0.00 0.05 0.00 80 1058.7
20260903171912 19 270 14.5 0.0 0.00 0.05 0.00 81 1058.7
20260903171801 19 270 12.9 0.0 0.00 0.05 0.00 81 1058.7
20260903171645 19 315 19.3 0.0 0.00 0.05 0.00 80 1058.8
20260903171532 19 292 20.9 0.0 0.00 0.05 0.00 81 1058.8
20260903171419 19 292 9.7 0.0 0.00 0.05 0.00 81 1058.8
20260903171307 19 225 14.5 0.0 0.00 0.05 0.00 81 1058.7
20260903171153 20 292 20.9 0.0 0.00 0.05 0.00 81 1058.8
20260903171039 20 315 19.3 0.0 0.00 0.05 0.00 81 1058.7
20260903170926 20 315 8.0 0.0 0.00 0.05 0.00 81 1058.7
20260903170822 20 315 8.0 0.0 0.00 0.05 0.00 81 1058.6
20260903170708 20 337 9.7 0.0 0.00 0.05 0.00 81 1058.6
20260903170555 20 292 11.3 0.0 0.00 0.05 0.00 81 1058.6
20260903170442 20 247 11.3 0.0 0.00 0.05 0.00 80 1058.6
20260903170329 20 292 12.9 0.0 0.00 0.05 0.00 80 1058.6
20260903170215 20 270 12.9 0.0 0.00 0.05 0.00 80 1058.7
20260903165952 20 270 17.7 0.0 0.00 0.05 0.00 81 1058.7
20260903165847 20 315 14.5 0.0 0.00 0.05 0.00 81 1058.7
20260903165739 20 292 19.3 0.0 0.00 0.05 0.00 81 1058.7
20260903165626 20 315 16.1 0.0 0.00 0.05 0.00 81 1058.7
20260903165513 20 292 0.0 0.0 0.00 0.05 0.00 80 1058.8
20260903165402 20 315 14.5 0.0 0.00 0.05 0.00 80 1058.7
20260903165257 20 270 9.7 0.0 0.00 0.05 0.00 80 1058.7
20260903165151 20 315 6.4 0.0 0.00 0.05 0.00 80 1058.7
20260903165047 20 270 20.9 0.0 0.00 0.05 0.00 81 1058.6
20260903164932 20 315 11.3 0.0 0.00 0.05 0.00 81 1058.6
20260903164818 20 270 9.7 0.0 0.00 0.05 0.00 81 1058.5
20260903164706 20 337 9.7 0.0 0.00 0.05 0.00 81 1058.5
20260903164552 20 270 9.7 0.0 0.00 0.05 0.00 81 1058.4
20260903164442 20 247 11.3 0.0 0.00 0.05 0.00 81 1058.4
20260903164334 20 292 6.4 0.0 0.00 0.05 0.00 81 1058.4
20260903164221 20 292 11.3 0.0 0.00 0.05 0.00 80 1058.3
20260903164116 20 292 25.7 0.0 0.00 0.05 0.00 80 1058.4
20260903164003 20 292 12.9 0.0 0.00 0.05 0.00 80 1058.4
20260903163850 20 270 12.9 0.0 0.00 0.05 0.00 80 1058.4
20260903163728 20 315 8.0 0.0 0.00 0.05 0.00 80 1058.4
20260903163607 20 315 8.0 0.0 0.00 0.05 0.00 80 1058.6
20260903163456 20 270 12.9 0.0 0.00 0.05 0.00 80 1058.6
20260903163350 20 292 11.3 0.0 0.00 0.05 0.00 80 1058.7
20260903163236 20 292 0.0 0.0 0.00 0.05 0.00 80 1058.7
20260903163123 20 225 11.3 0.0 0.00 0.05 0.00 80 1058.7
20260903163012 20 270 9.7 0.0 0.00 0.05 0.00 81 1058.7
20260903162905 20 292 11.3 0.0 0.00 0.05 0.00 80 1058.7
20260903162744 20 292 0.0 0.0 0.00 0.05 0.00 80 1058.7
20260903162639 20 315 9.7 0.0 0.00 0.05 0.00 80 1058.6
20260903162533 20 247 9.7 0.0 0.00 0.05 0.00 80 1058.5
20260903162427 20 225 0.0 0.0 0.00 0.05 0.00 80 1058.5
20260903162321 20 270 6.4 0.0 0.00 0.05 0.00 80 1058.5
20260903162215 20 247 9.7 0.0 0.00 0.05 0.00 80 1058.5
20260903162108 20 315 16.1 0.0 0.00 0.05 0.00 80 1058.5
20260903162003 20 270 12.9 0.0 0.00 0.05 0.00 80 1058.5
20260903161856 20 315 0.0 0.0 0.00 0.05 0.00 80 1058.5
20260903161741 20 292 6.4 0.0 0.00 0.05 0.00 79 1058.5
20260903161628 20 292 3.2 0.0 0.00 0.05 0.00 79 1058.5
20260903161515 20 292 17.7 0.0 0.00 0.05 0.00 80 1058.5
20260903161401 20 315 11.3 0.0 0.00 0.05 0.00 80 1058.6
20260903161247 20 292 8.0 0.0 0.00 0.05 0.00 79 1058.6
20260903161127 20 292 9.7 0.0 0.00 0.05 0.00 79 1058.6
20260903160958 20 270 24.1 0.0 0.00 0.05 0.00 79 1058.6
20260903160845 20 315 19.3 0.0 0.00 0.05 0.00 79 1058.5
20260903160732 20 292 11.3 0.0 0.00 0.05 0.00 79 1058.6
20260903160626 20 315 9.7 0.0 0.00 0.05 0.00 79 1058.6
20260903160521 20 315 11.3 0.0 0.00 0.05 0.00 79 1058.6
20260903160409 20 337 8.0 0.0 0.00 0.05 0.00 79 1058.5
20260903160239 20 292 11.3 0.0 0.00 0.05 0.00 79 1058.5
20260903160133 20 337 11.3 0.0 0.00 0.05 0.00 80 1058.4
20260903160021 20 315 17.7 0.0 0.00 0.05 0.00 80 1058.4
20260903155914 20 292 9.7 0.0 0.00 0.05 0.00 80 1058.4
20260903155800 20 270 27.4 0.0 0.00 0.05 0.00 79 1058.4
20260903155638 20 315 16.1 0.0 0.00 0.05 0.00 79 1058.4
20260903155533 20 315 9.7 0.0 0.00 0.05 0.00 80 1058.4
20260903155427 20 337 12.9 0.0 0.00 0.05 0.00 80 1058.3
20260903155321 20 180 9.7 0.0 0.00 0.05 0.00 80 1058.3
20260903155216 20 315 4.8 0.0 0.00 0.05 0.00 80 1058.3
20260903155109 20 315 12.9 0.0 0.00 0.05 0.00 80 1058.3
20260903154957 20 270 6.4 0.0 0.00 0.05 0.00 80 1058.3
20260903154843 20 315 8.0 0.0 0.00 0.05 0.00 79 1058.4
20260903154721 20 292 8.0 0.0 0.00 0.05 0.00 80 1058.5
20260903154616 20 337 14.5 0.0 0.00 0.05 0.00 80 1058.5
20260903154510 20 292 8.0 0.0 0.00 0.05 0.00 80 1058.4
20260903154404 20 270 17.7 0.0 0.00 0.05 0.00 80 1058.5
20260903154253 20 337 11.3 0.0 0.00 0.05 0.00 80 1058.4
20260903154146 20 270 6.4 0.0 0.00 0.05 0.00 80 1058.5
20260903154032 20 270 25.7 0.0 0.00 0.05 0.00 80 1058.5
20260903153903 20 292 14.5 0.0 0.00 0.05 0.00 80 1058.5
20260903153750 20 292 17.7 0.0 0.00 0.05 0.00 80 1058.5
20260903153629 20 270 17.7 0.0 0.00 0.05 0.00 80 1058.5
20260903153525 20 270 20.9 0.0 0.00 0.05 0.00 80 1058.5
20260903153420 20 315 14.5 0.0 0.00 0.05 0.00 80 1058.5
20260903153313 21 337 8.0 0.0 0.00 0.05 0.00 80 1058.5
20260903153200 21 270 17.7 0.0 0.00 0.05 0.00 80 1058.4
20260903153054 21 270 9.7 0.0 0.00 0.05 0.00 80 1058.4
20260903152941 21 292 12.9 0.0 0.00 0.05 0.00 79 1058.4
20260903152835 21 315 16.1 0.0 0.00 0.05 0.00 79 1058.4
20260903152721 21 315 32.2 0.0 0.00 0.05 0.00 79 1058.4
20260903152608 21 292 19.3 0.0 0.00 0.05 0.00 78 1058.4
20260903152454 21 292 6.4 0.0 0.00 0.05 0.00 78 1058.3
20260903152333 21 315 9.7 0.0 0.00 0.05 0.00 78 1058.3
20260903152227 21 292 14.5 0.0 0.00 0.05 0.00 78 1058.3
20260903152114 21 247 12.9 0.0 0.00 0.05 0.00 78 1058.4
20260903152001 21 337 11.3 0.0 0.00 0.05 0.00 78 1058.2
20260903151839 21 292 12.9 0.0 0.00 0.05 0.00 78 1058.3
20260903151718 21 292 20.9 0.0 0.00 0.05 0.00 78 1058.3
20260903151558 21 292 16.1 0.0 0.00 0.05 0.00 78 1058.3
20260903151452 21 292 19.3 0.0 0.00 0.05 0.00 78 1058.3
20260903151348 21 292 20.9 0.0 0.00 0.05 0.00 79 1058.2
20260903151242 21 292 8.0 0.0 0.00 0.05 0.00 79 1058.3
20260903151129 21 270 6.4 0.0 0.00 0.05 0.00 79 1058.3
20260903151023 21 337 9.7 0.0 0.00 0.05 0.00 79 1058.2
20260903150910 21 315 22.5 0.0 0.00 0.05 0.00 79 1058.2
20260903150758 21 315 11.3 0.0 0.00 0.05 0.00 79 1058.3
20260903150650 21 337 6.4 0.0 0.00 0.05 0.00 79 1058.3
20260903150536 21 247 14.5 0.0 0.00 0.05 0.00 79 1058.3
20260903150430 21 315 14.5 0.0 0.00 0.05 0.00 79 1058.3
20260903150317 21 247 9.7 0.0 0.00 0.05 0.00 79 1058.2
20260903150210 21 315 27.4 0.0 0.00 0.05 0.00 79 1058.2
20260903150048 21 270 19.3 0.0 0.00 0.05 0.00 79 1058.1
20260903145935 21 22 9.7 0.0 0.00 0.05 0.00 79 1058.2
20260903145821 21 292 9.7 0.0 0.00 0.05 0.00 79 1058.1
20260903145716 21 315 9.7 0.0 0.00 0.05 0.00 79 1058.1
20260903145610 21 270 17.7 0.0 0.00 0.05 0.00 79 1058.1
20260903145440 21 292 12.9 0.0 0.00 0.05 0.00 79 1058.2
20260903145327 21 315 25.7 0.0 0.00 0.05 0.00 79 1058.1
20260903145221 21 270 9.7 0.0 0.00 0.05 0.00 79 1058.1
20260903145110 21 270 12.9 0.0 0.00 0.05 0.00 79 1058.2
20260903145003 21 292 11.3 0.0 0.00 0.05 0.00 79 1058.2
20260903144833 21 292 12.9 0.0 0.00 0.05 0.00 80 1058.2
20260903144728 21 270 14.5 0.0 0.00 0.05 0.00 80 1058.1
20260903144605 21 270 8.0 0.0 0.00 0.05 0.00 80 1058.1
20260903144452 21 315 20.9 0.0 0.00 0.05 0.00 80 1058.1
20260903144338 21 292 19.3 0.0 0.00 0.05 0.00 79 1058.1
20260903144226 21 315 9.7 0.0 0.00 0.05 0.00 80 1058.1
20260903144110 21 315 11.3 0.0 0.00 0.05 0.00 79 1058.0
20260903143950 21 292 14.5 0.0 0.00 0.05 0.00 79 1058.0
20260903143845 21 247 19.3 0.0 0.00 0.05 0.00 79 1058.0
20260903143738 21 0 0.0 0.0 0.00 0.05 0.00 79 1058.0
20260903143616 21 337 6.4 0.0 0.00 0.05 0.00 79 1058.1
20260903143456 21 292 11.3 0.0 0.00 0.05 0.00 79 1058.0
20260903143343 21 270 11.3 0.0 0.00 0.05 0.00 79 1058.1
20260903143228 21 270 19.3 0.0 0.00 0.05 0.00 79 1058.0
20260903143122 21 292 9.7 0.0 0.00 0.05 0.00 79 1058.0
20260903143001 21 270 8.0 0.0 0.00 0.05 0.00 80 1058.0
20260903142847 21 337 9.7 0.0 0.00 0.05 0.00 79 1058.0
20260903142726 21 292 8.0 0.0 0.00 0.05 0.00 79 1058.1
20260903142606 21 247 24.1 0.0 0.00 0.05 0.00 79 1058.0
20260903142451 21 0 8.0 0.0 0.00 0.05 0.00 79 1058.1
20260903142329 21 315 9.7 0.0 0.00 0.05 0.00 78 1058.0
20260903142225 21 270 20.9 0.0 0.00 0.05 0.00 78 1058.0
20260903142119 21 270 9.7 0.0 0.00 0.05 0.00 78 1058.0
20260903142013 21 315 16.1 0.0 0.00 0.05 0.00 78 1058.1
20260903141844 21 315 9.7 0.0 0.00 0.05 0.00 78 1058.0
20260903141731 21 270 11.3 0.0 0.00 0.05 0.00 78 1057.9
20260903141626 21 270 9.7 0.0 0.00 0.05 0.00 77 1058.0
20260903141457 21 292 0.0 0.0 0.00 0.05 0.00 77 1058.0
20260903141344 21 292 6.4 0.0 0.00 0.05 0.00 77 1058.1
20260903141222 21 247 3.2 0.0 0.00 0.05 0.00 77 1058.0
20260903141102 21 270 16.1 0.0 0.00 0.05 0.00 77 1058.0
20260903140956 21 292 8.0 0.0 0.00 0.05 0.00 77 1058.0
20260903140835 21 292 9.7 0.0 0.00 0.05 0.00 77 1058.0
20260903140705 21 270 6.4 0.0 0.00 0.05 0.00 76 1058.0
20260903140554 21 315 11.3 0.0 0.00 0.05 0.00 76 1058.0
20260903140447 21 270 14.5 0.0 0.00 0.05 0.00 76 1057.9
20260903140320 22 0 9.7 0.0 0.00 0.05 0.00 76 1058.0
20260903140207 21 292 6.4 0.0 0.00 0.05 0.00 76 1057.9
20260903140052 22 337 6.4 0.0 0.00 0.05 0.00 76 1057.9
20260903135939 22 292 16.1 0.0 0.00 0.05 0.00 76 1057.9
20260903135817 22 0 9.7 0.0 0.00 0.05 0.00 76 1058.0
20260903135704 22 315 6.4 0.0 0.00 0.05 0.00 76 1058.0
20260903135550 22 315 6.4 0.0 0.00 0.05 0.00 76 1058.0
20260903135431 22 292 19.3 0.0 0.00 0.05 0.00 76 1057.9
20260903135325 22 315 4.8 0.0 0.00 0.05 0.00 76 1057.9
20260903135214 22 292 3.2 0.0 0.00 0.05 0.00 76 1057.9
20260903135059 22 247 19.3 0.0 0.00 0.05 0.00 76 1057.9
20260903134938 22 247 16.1 0.0 0.00 0.05 0.00 76 1057.8
20260903134824 22 270 9.7 0.0 0.00 0.05 0.00 76 1057.9
20260903134704 22 270 29.0 0.0 0.00 0.05 0.00 76 1057.9
20260903134552 22 247 6.4 0.0 0.00 0.05 0.00 76 1057.8
20260903134439 22 337 22.5 0.0 0.00 0.05 0.00 76 1057.8
20260903134333 22 270 16.1 0.0 0.00 0.05 0.00 76 1057.7
20260903134227 22 292 9.7 0.0 0.00 0.05 0.00 76 1057.7
20260903134114 22 292 11.3 0.0 0.00 0.05 0.00 77 1057.7
20260903134002 22 292 11.3 0.0 0.00 0.05 0.00 77 1057.8
20260903133857 22 270 11.3 0.0 0.00 0.05 0.00 77 1057.8
20260903133750 22 337 8.0 0.0 0.00 0.05 0.00 77 1057.7
20260903133631 22 315 17.7 0.0 0.00 0.05 0.00 78 1057.8
20260903133524 22 315 12.9 0.0 0.00 0.05 0.00 78 1057.9
20260903133403 22 292 24.1 0.0 0.00 0.05 0.00 78 1057.8
20260903133244 22 292 20.9 0.0 0.00 0.05 0.00 78 1057.8
20260903133138 21 292 8.0 0.0 0.00 0.05 0.00 77 1057.8
20260903133024 21 270 20.9 0.0 0.00 0.05 0.00 77 1057.8
20260903132910 22 292 29.0 0.0 0.00 0.05 0.00 78 1057.7
20260903132759 22 270 4.8 0.0 0.00 0.05 0.00 78 1057.7
20260903132652 22 315 12.9 0.0 0.00 0.05 0.00 79 1057.8
20260903132531 22 270 8.0 0.0 0.00 0.05 0.00 79 1057.8
20260903132411 22 315 9.7 0.0 0.00 0.05 0.00 79 1057.9
20260903132256 22 270 9.7 0.0 0.00 0.05 0.00 79 1057.9
20260903132144 22 315 11.3 0.0 0.00 0.05 0.00 78 1057.9
20260903132031 22 337 14.5 0.0 0.00 0.05 0.00 78 1057.8
20260903131920 22 292 8.0 0.0 0.00 0.05 0.00 78 1057.8
20260903131814 22 292 9.7 0.0 0.00 0.05 0.00 78 1057.8
20260903131708 22 292 14.5 0.0 0.00 0.05 0.00 77 1057.9
20260903131556 22 292 19.3 0.0 0.00 0.05 0.00 77 1057.8
20260903131449 22 292 9.7 0.0 0.00 0.05 0.00 77 1057.9
20260903131336 22 315 4.8 0.0 0.00 0.05 0.00 77 1057.9
20260903131217 22 315 24.1 0.0 0.00 0.05 0.00 77 1057.7
20260903131109 22 292 0.0 0.0 0.00 0.05 0.00 77 1057.8
20260903130957 22 292 20.9 0.0 0.00 0.05 0.00 77 1057.7
20260903130835 22 337 17.7 0.0 0.00 0.05 0.00 77 1057.8
20260903130724 22 315 16.1 0.0 0.00 0.05 0.00 77 1057.8
20260903130617 22 270 8.0 0.0 0.00 0.05 0.00 77 1057.8
20260903130504 22 270 9.7 0.0 0.00 0.05 0.00 78 1057.9
20260903130351 22 292 11.3 0.0 0.00 0.05 0.00 78 1057.8
20260903130230 22 315 16.1 0.0 0.00 0.05 0.00 78 1057.9
20260903130117 22 247 9.7 0.0 0.00 0.05 0.00 78 1057.8
20260903130003 22 337 20.9 0.0 0.00 0.05 0.00 78 1057.9
20260903125842 22 270 6.4 0.0 0.00 0.05 0.00 78 1057.9
20260903125731 22 292 17.7 0.0 0.00 0.05 0.00 78 1057.9
20260903125627 22 315 12.9 0.0 0.00 0.05 0.00 78 1057.7
20260903125519 22 292 6.4 0.0 0.00 0.05 0.00 78 1057.8
20260903125406 22 292 14.5 0.0 0.00 0.05 0.00 78 1057.8
20260903125252 22 270 14.5 0.0 0.00 0.05 0.00 77 1057.9
20260903125134 22 270 12.9 0.0 0.00 0.05 0.00 77 1057.8
20260903125020 22 292 12.9 0.0 0.00 0.05 0.00 77 1057.8
20260903124913 22 270 11.3 0.0 0.00 0.05 0.00 77 1057.7
20260903124800 22 292 9.7 0.0 0.00 0.05 0.00 77 1057.7
20260903124647 22 0 9.7 0.0 0.00 0.05 0.00 77 1057.6
20260903124526 22 270 14.5 0.0 0.00 0.05 0.00 77 1057.7
20260903124415 22 315 14.5 0.0 0.00 0.05 0.00 77 1057.6
20260903124308 22 292 4.8 0.0 0.00 0.05 0.00 76 1057.7
20260903124147 22 315 12.9 0.0 0.00 0.05 0.00 76 1057.5
20260903124042 22 315 30.6 0.0 0.00 0.05 0.00 76 1057.5
20260903123928 22 292 4.8 0.0 0.00 0.05 0.00 76 1057.5
20260903123802 22 270 14.5 0.0 0.00 0.05 0.00 76 1057.5
20260903123653 22 270 19.3 0.0 0.00 0.05 0.00 76 1057.6
20260903123533 22 270 19.3 0.0 0.00 0.05 0.00 76 1057.5
20260903123415 23 270 4.8 0.0 0.00 0.05 0.00 75 1057.5
20260903123307 23 292 16.1 0.0 0.00 0.05 0.00 74 1057.5
20260903123153 23 292 9.7 0.0 0.00 0.05 0.00 74 1057.5
20260903123041 23 247 8.0 0.0 0.00 0.05 0.00 74 1057.5
20260903122919 23 270 12.9 0.0 0.00 0.05 0.00 73 1057.5
20260903122809 23 292 17.7 0.0 0.00 0.05 0.00 73 1057.4
20260903122701 23 337 9.7 0.0 0.00 0.05 0.00 73 1057.4
20260903122532 23 337 11.3 0.0 0.00 0.05 0.00 73 1057.4
20260903122419 23 315 12.9 0.0 0.00 0.05 0.00 73 1057.4
20260903122314 23 247 12.9 0.0 0.00 0.05 0.00 72 1057.4
20260903122209 23 315 12.9 0.0 0.00 0.05 0.00 72 1057.3
20260903122056 23 315 8.0 0.0 0.00 0.05 0.00 72 1057.4
20260903121934 24 337 12.9 0.0 0.00 0.05 0.00 72 1057.4
20260903121821 24 225 16.1 0.0 0.00 0.05 0.00 72 1057.3
20260903121707 24 315 12.9 0.0 0.00 0.05 0.00 72 1057.4
20260903121547 24 315 8.0 0.0 0.00 0.05 0.00 72 1057.3
20260903121434 24 270 19.3 0.0 0.00 0.05 0.00 71 1057.3
20260903121320 24 292 12.9 0.0 0.00 0.05 0.00 71 1057.2
20260903121159 24 270 17.7 0.0 0.00 0.05 0.00 71 1057.2
20260903121046 24 270 16.1 0.0 0.00 0.05 0.00 71 1057.3
20260903120926 24 247 17.7 0.0 0.00 0.05 0.00 71 1057.3
20260903120820 24 315 9.7 0.0 0.00 0.05 0.00 71 1057.2
20260903120659 24 270 32.2 0.0 0.00 0.05 0.00 71 1057.1
20260903120548 24 270 24.1 0.0 0.00 0.05 0.00 72 1057.2
20260903120440 24 270 12.9 0.0 0.00 0.05 0.00 72 1057.2
20260903120328 24 292 30.6 0.0 0.00 0.05 0.00 72 1057.1
20260903120214 24 270 17.7 0.0 0.00 0.05 0.00 73 1057.2
20260903120100 24 247 25.7 0.0 0.00 0.05 0.00 73 1057.0
20260903115940 23 337 11.3 0.0 0.00 0.05 0.00 75 1057.3
20260903115821 23 315 9.7 0.0 0.00 0.05 0.00 75 1057.2
20260903115706 23 315 12.9 0.0 0.00 0.05 0.00 75 1057.3
20260903115554 23 247 11.3 0.0 0.00 0.05 0.00 76 1057.2
20260903115448 23 292 12.9 0.0 0.00 0.05 0.00 77 1057.2
20260903115335 22 315 9.7 0.0 0.00 0.05 0.00 78 1057.2
20260903115213 22 292 22.5 0.0 0.00 0.05 0.00 78 1057.2
20260903115052 22 292 6.4 0.0 0.00 0.05 0.00 79 1057.1
20260903114940 22 292 14.5 0.0 0.00 0.05 0.00 78 1057.2
20260903114827 22 292 11.3 0.0 0.00 0.05 0.00 78 1057.2
20260903114720 22 292 19.3 0.0 0.00 0.05 0.00 77 1057.2
20260903114600 22 292 8.0 0.0 0.00 0.05 0.00 76 1057.2
20260903114432 22 315 24.1 0.0 0.00 0.05 0.00 76 1057.1
20260903114317 22 337 6.4 0.0 0.00 0.05 0.00 75 1057.1
20260903114204 22 270 14.5 0.0 0.00 0.05 0.00 75 1057.1
20260903114051 22 247 19.3 0.0 0.00 0.05 0.00 74 1057.1
20260903113937 23 292 14.5 0.0 0.00 0.05 0.00 74 1057.2
20260903113825 23 292 12.9 0.0 0.00 0.05 0.00 75 1057.0
20260903113712 23 292 30.6 0.0 0.00 0.05 0.00 75 1057.0
20260903113606 23 292 32.2 0.0 0.00 0.05 0.00 75 1057.1
20260903113453 23 225 8.0 0.0 0.00 0.05 0.00 75 1057.0
20260903113340 23 292 14.5 0.0 0.00 0.05 0.00 76 1057.0
20260903113230 23 270 14.5 0.0 0.00 0.05 0.00 76 1057.1
20260903113123 23 247 16.1 0.0 0.00 0.05 0.00 76 1057.1
20260903113018 22 270 27.4 0.0 0.00 0.05 0.00 75 1057.1
20260903112904 23 292 20.9 0.0 0.00 0.05 0.00 75 1057.0
20260903112753 23 270 25.7 0.0 0.00 0.05 0.00 75 1057.0
20260903112647 23 292 14.5 0.0 0.00 0.05 0.00 75 1056.9
20260903112542 23 180 22.5 0.0 0.00 0.05 0.00 75 1056.9
20260903112428 23 292 11.3 0.0 0.00 0.05 0.00 75 1056.9
20260903112317 23 270 11.3 0.0 0.00 0.05 0.00 75 1056.9
20260903112210 23 247 14.5 0.0 0.00 0.05 0.00 75 1057.0
20260903112049 23 225 12.9 0.0 0.00 0.05 0.00 75 1056.9
20260903111938 23 270 14.5 0.0 0.00 0.05 0.00 75 1056.9
20260903111830 23 0 6.4 0.0 0.00 0.05 0.00 75 1056.9
20260903111710 23 270 22.5 0.0 0.00 0.05 0.00 75 1056.8
20260903111605 23 315 12.9 0.0 0.00 0.05 0.00 75 1056.8
20260903111459 23 315 24.1 0.0 0.00 0.05 0.00 75 1056.8
20260903111346 23 292 24.1 0.0 0.00 0.05 0.00 74 1056.8
20260903111232 23 315 14.5 0.0 0.00 0.05 0.00 74 1056.8
20260903111111 23 292 9.7 0.0 0.00 0.05 0.00 74 1056.8
20260903110950 23 315 16.1 0.0 0.00 0.05 0.00 75 1056.8
20260903110838 23 247 16.1 0.0 0.00 0.05 0.00 75 1056.8
20260903110732 23 315 24.1 0.0 0.00 0.05 0.00 75 1056.8
20260903110620 23 292 17.7 0.0 0.00 0.05 0.00 75 1056.7
20260903110515 23 270 17.7 0.0 0.00 0.05 0.00 75 1056.8
20260903110411 23 270 9.7 0.0 0.00 0.05 0.00 75 1056.8
20260903110304 23 292 11.3 0.0 0.00 0.05 0.00 75 1056.7
20260903110136 23 292 14.5 0.0 0.00 0.05 0.00 75 1056.7
20260903105856 23 292 12.9 0.0 0.05 0.05 0.00 75 1056.7
20260903105744 23 270 9.7 0.0 0.05 0.05 0.00 75 1056.6
20260903105624 23 315 27.4 0.0 0.05 0.05 0.00 75 1056.7
20260903105517 23 292 9.7 0.0 0.05 0.05 0.00 74 1056.7
20260903105356 24 270 12.9 0.0 0.05 0.05 0.00 74 1056.6
20260903105250 24 315 11.3 0.0 0.05 0.05 0.00 74 1056.7
20260903105143 24 270 17.7 0.0 0.05 0.05 0.00 74 1056.7
20260903105029 24 270 17.7 0.0 0.05 0.05 0.00 73 1056.7
20260903104919 23 270 11.3 0.0 0.05 0.05 0.00 74 1056.6
20260903104813 23 292 20.9 0.0 0.05 0.05 0.00 74 1056.5
20260903104700 23 270 4.8 0.0 0.05 0.05 0.00 74 1056.5
20260903104552 23 270 16.1 0.0 0.05 0.05 0.00 74 1056.7
20260903104440 23 315 17.7 0.0 0.05 0.05 0.00 75 1056.7
20260903104333 23 292 17.7 0.0 0.05 0.05 0.00 75 1056.7
20260903104223 23 315 9.7 0.0 0.05 0.05 0.00 76 1056.8
20260903104115 23 292 11.3 0.0 0.05 0.05 0.00 76 1056.8
20260903103954 23 270 12.9 0.0 0.05 0.05 0.00 76 1056.9
20260903103841 23 270 11.3 0.0 0.05 0.05 0.00 77 1056.9
20260903103722 23 270 32.2 0.0 0.05 0.05 0.00 77 1056.9
20260903103607 23 247 17.7 0.0 0.05 0.05 0.00 77 1056.9
20260903103448 23 225 25.7 0.0 0.05 0.05 0.00 77 1056.9
20260903103332 23 292 11.3 0.0 0.05 0.05 0.00 77 1057.0
20260903103212 23 270 4.8 0.0 0.05 0.05 0.00 77 1056.9
20260903103106 23 247 9.7 0.0 0.05 0.05 0.00 77 1056.9
20260903102947 23 270 9.7 0.0 0.05 0.05 0.00 76 1056.9
20260903102833 23 315 3.2 0.0 0.05 0.05 0.00 75 1056.9
20260903102727 23 270 20.9 0.0 0.05 0.05 0.00 77 1056.9
20260903102613 23 270 20.9 0.0 0.05 0.05 0.00 76 1056.9
20260903102501 23 270 29.0 0.0 0.05 0.05 0.00 77 1056.9
20260903102340 23 270 20.9 0.0 0.05 0.05 0.00 78 1056.9
20260903102226 23 247 19.3 0.0 0.05 0.05 0.00 78 1056.9
20260903102105 23 315 11.3 0.0 0.05 0.05 0.00 79 1056.9
20260903101953 22 315 11.3 0.0 0.05 0.05 0.00 79 1056.8
20260903101849 22 270 12.9 0.0 0.05 0.05 0.00 79 1056.8
20260903101742 22 247 14.5 0.0 0.05 0.05 0.00 80 1056.9
20260903101629 22 315 11.3 0.0 0.05 0.05 0.00 79 1056.9
20260903101507 22 315 25.7 0.0 0.05 0.05 0.00 80 1056.9
20260903101346 22 270 14.5 0.0 0.05 0.05 0.00 79 1056.9
20260903101233 22 292 27.4 0.0 0.05 0.05 0.00 80 1056.9
20260903101119 22 292 12.9 0.0 0.05 0.05 0.00 79 1056.9
20260903100959 22 292 17.7 0.0 0.05 0.05 0.00 79 1056.9
20260903100848 22 270 11.3 0.0 0.05 0.05 0.00 79 1056.9
20260903100743 22 315 11.3 0.0 0.05 0.05 0.00 79 1056.8
20260903100638 22 315 20.9 0.0 0.05 0.05 0.00 79 1056.8
20260903100531 22 270 24.1 0.0 0.05 0.05 0.00 79 1056.8
20260903100410 22 292 11.3 0.0 0.05 0.05 0.00 80 1056.8
20260903100256 22 292 24.1 0.0 0.00 0.00 0.00 81 1056.8
20260903100143 22 270 14.5 0.0 0.00 0.00 0.00 80 1056.9
20260903100032 22 315 9.7 0.0 0.00 0.00 0.00 81 1056.9
20260903095925 22 292 17.7 0.0 0.00 0.00 0.00 81 1057.0
20260903095812 22 270 12.9 0.0 0.00 0.00 0.00 81 1056.9
20260903095659 22 225 8.0 0.0 0.00 0.00 0.00 81 1056.9
20260903095524 21 292 183.5 0.0 0.00 0.00 0.00 82 1057.0
20260903094932 22 292 183.5 0.0 0.00 0.00 0.00 82 1056.9
20260903094302 21 292 183.5 0.0 0.00 0.00 0.00 86 1057.0
20260903093654 21 292 183.5 0.0 0.00 0.00 0.00 86 1056.9
20260903093052 20 292 183.5 0.0 0.00 0.00 0.00 88 1057.0
20260903092447 20 292 183.5 0.0 0.00 0.00 0.00 90 1057.1
20260903091848 19 292 183.5 0.0 0.00 0.00 0.00 92 1057.2
20260903091238 18 270 8.0 0.0 0.00 0.00 0.00 91 1057.0
20260903091115 18 247 16.1 0.0 0.00 0.00 0.00 91 1057.1
20260903091002 18 225 11.3 0.0 0.00 0.00 0.00 91 1056.9
20260903090839 18 270 14.5 0.0 0.00 0.00 0.00 91 1057.0
20260903090726 18 270 12.9 0.0 0.00 0.00 0.00 91 1057.0
20260903090619 18 247 11.3 0.0 0.00 0.00 0.00 91 1057.1
20260903090514 18 135 3.2 0.0 0.00 0.00 0.00 91 1057.2
20260903090408 18 270 12.9 0.0 0.00 0.00 0.00 91 1057.1
20260903090302 18 270 8.0 0.0 0.00 0.00 0.00 90 1056.9
20260903090148 18 202 11.3 0.0 0.00 0.00 0.00 90 1057.0
20260903090036 18 270 14.5 0.0 0.00 0.00 0.00 90 1057.0
20260903085931 18 270 8.0 0.0 0.00 0.00 0.00 90 1057.1
20260903085823 18 225 12.9 0.0 0.00 0.00 0.00 89 1056.9
20260903085709 19 202 11.3 0.0 0.00 0.00 0.00 89 1057.0
20260903085555 19 202 0.0 0.0 0.00 0.00 0.00 89 1056.9
20260903085450 19 225 0.0 0.0 0.00 0.00 0.00 89 1057.0
20260903085345 19 270 8.0 0.0 0.00 0.00 0.00 88 1056.9
20260903085240 19 247 0.0 0.0 0.00 0.00 0.00 88 1057.1
20260903085135 19 270 0.0 0.0 0.00 0.00 0.00 88 1057.0
20260903085029 19 225 3.2 0.0 0.00 0.00 0.00 88 1056.9
20260903084916 19 247 4.8 0.0 0.00 0.00 0.00 88 1057.1
20260903084756 19 225 12.9 0.0 0.00 0.00 0.00 88 1057.0
20260903084650 19 270 14.5 0.0 0.00 0.00 0.00 87 1057.0
20260903084537 20 270 17.7 0.0 0.00 0.00 0.00 87 1056.9
20260903084432 20 247 14.5 0.0 0.00 0.00 0.00 87 1057.0
20260903084310 20 202 12.9 0.0 0.00 0.00 0.00 87 1057.0
20260903084150 20 157 6.4 0.0 0.00 0.00 0.00 86 1057.1
20260903084044 20 247 8.0 0.0 0.00 0.00 0.00 86 1057.0
20260903083939 20 270 9.7 0.0 0.00 0.00 0.00 86 1056.8
20260903083833 20 247 17.7 0.0 0.00 0.00 0.00 86 1057.0
20260903083727 20 225 12.9 0.0 0.00 0.00 0.00 86 1057.0
20260903083621 20 247 9.7 0.0 0.00 0.00 0.00 85 1056.9
20260903083515 20 247 0.0 0.0 0.00 0.00 0.00 85 1056.9
20260903083410 20 247 20.9 0.0 0.00 0.00 0.00 85 1057.0
20260903083303 20 270 8.0 0.0 0.00 0.00 0.00 85 1057.1
20260903083158 20 292 4.8 0.0 0.00 0.00 0.00 85 1057.0
20260903083051 20 225 8.0 0.0 0.00 0.00 0.00 85 1057.1
20260903082946 20 180 6.4 0.0 0.00 0.00 0.00 85 1057.0
20260903082840 20 247 12.9 0.0 0.00 0.00 0.00 85 1057.0
20260903082733 20 292 9.7 0.0 0.00 0.00 0.00 85 1057.0
20260903082628 20 270 8.0 0.0 0.00 0.00 0.00 85 1056.8
20260903082521 20 247 11.3 0.0 0.00 0.00 0.00 85 1057.0
20260903082407 20 270 14.5 0.0 0.00 0.00 0.00 86 1056.9
20260903082253 20 247 9.7 0.0 0.00 0.00 0.00 86 1056.9
20260903082141 20 315 3.2 0.0 0.00 0.00 0.00 86 1057.0
20260903082031 20 270 8.0 0.0 0.00 0.00 0.00 85 1057.0
20260903081919 20 270 6.4 0.0 0.00 0.00 0.00 85 1057.0
20260903081806 20 247 17.7 0.0 0.00 0.00 0.00 85 1057.0
20260903081653 20 270 6.4 0.0 0.00 0.00 0.00 86 1056.9
20260903081532 20 247 6.4 0.0 0.00 0.00 0.00 85 1056.9
20260903081418 20 270 6.4 0.0 0.00 0.00 0.00 85 1056.8
20260903081300 20 247 14.5 0.0 0.00 0.00 0.00 85 1056.8
20260903081152 20 292 11.3 0.0 0.00 0.00 0.00 86 1056.9
20260903081039 20 247 9.7 0.0 0.00 0.00 0.00 86 1056.8
20260903080934 20 292 8.0 0.0 0.00 0.00 0.00 86 1056.9
20260903080828 20 270 9.7 0.0 0.00 0.00 0.00 86 1056.9
20260903080722 20 247 16.1 0.0 0.00 0.00 0.00 86 1056.9
20260903080616 20 292 9.7 0.0 0.00 0.00 0.00 86 1056.9
20260903080509 20 202 12.9 0.0 0.00 0.00 0.00 87 1056.9
20260903080348 19 225 9.7 0.0 0.00 0.00 0.00 86 1057.0
20260903080219 19 247 11.3 0.0 0.00 0.00 0.00 86 1056.9
20260903080114 19 225 3.2 0.0 0.00 0.00 0.00 86 1057.0
20260903080001 19 225 16.1 0.0 0.00 0.00 0.00 86 1057.0
20260903075848 19 202 8.0 0.0 0.00 0.00 0.00 86 1056.9
20260903075735 19 247 6.4 0.0 0.00 0.00 0.00 86 1056.9
20260903075628 19 225 14.5 0.0 0.00 0.00 0.00 86 1057.0
20260903075523 19 292 11.3 0.0 0.00 0.00 0.00 86 1057.0
20260903075418 19 247 3.2 0.0 0.00 0.00 0.00 86 1056.9
20260903075311 19 202 9.7 0.0 0.00 0.00 0.00 86 1056.9
20260903075205 19 247 9.7 0.0 0.00 0.00 0.00 86 1056.8
20260903075059 19 135 22.5 0.0 0.00 0.00 0.00 86 1056.9
20260903074953 19 270 14.5 0.0 0.00 0.00 0.00 86 1057.0
20260903074834 19 315 8.0 0.0 0.00 0.00 0.00 87 1057.0
20260903074729 19 202 17.7 0.0 0.00 0.00 0.00 87 1057.1
20260903074621 19 247 9.7 0.0 0.00 0.00 0.00 87 1056.9
20260903074501 19 157 4.8 0.0 0.00 0.00 0.00 87 1057.0
20260903074347 19 202 11.3 0.0 0.00 0.00 0.00 87 1057.0
20260903074234 19 270 9.7 0.0 0.00 0.00 0.00 88 1057.0
20260903074122 19 270 3.2 0.0 0.00 0.00 0.00 88 1057.0
20260903074016 18 202 8.0 0.0 0.00 0.00 0.00 88 1057.0
20260903073903 18 270 11.3 0.0 0.00 0.00 0.00 88 1056.9
20260903073757 18 247 11.3 0.0 0.00 0.00 0.00 87 1057.0
20260903073636 18 292 11.3 0.0 0.00 0.00 0.00 87 1056.9
20260903073516 18 247 22.5 0.0 0.00 0.00 0.00 87 1057.0
20260903073404 18 247 8.0 0.0 0.00 0.00 0.00 87 1056.9
20260903073258 18 225 11.3 0.0 0.00 0.00 0.00 87 1056.9
20260903073145 18 247 6.4 0.0 0.00 0.00 0.00 87 1057.0
20260903073031 18 225 11.3 0.0 0.00 0.00 0.00 87 1057.0
20260903072918 18 225 0.0 0.0 0.00 0.00 0.00 87 1056.9
20260903072813 18 202 3.2 0.0 0.00 0.00 0.00 87 1056.9
20260903072653 18 270 3.2 0.0 0.00 0.00 0.00 87 1056.9
20260903072547 18 270 8.0 0.0 0.00 0.00 0.00 87 1056.9
20260903072443 18 225 4.8 0.0 0.00 0.00 0.00 87 1056.9
20260903072331 18 247 0.0 0.0 0.00 0.00 0.00 87 1057.0
20260903072224 18 157 12.9 0.0 0.00 0.00 0.00 87 1056.9
20260903072111 18 292 4.8 0.0 0.00 0.00 0.00 87 1057.1
20260903072006 18 270 8.0 0.0 0.00 0.00 0.00 87 1056.9
20260903071901 18 247 16.1 0.0 0.00 0.00 0.00 87 1057.1
20260903071756 18 270 0.0 0.0 0.00 0.00 0.00 87 1057.0
20260903071650 18 247 8.0 0.0 0.00 0.00 0.00 87 1057.0
20260903071545 18 247 11.3 0.0 0.00 0.00 0.00 88 1057.1
20260903071424 18 180 8.0 0.0 0.00 0.00 0.00 88 1057.0
20260903071311 18 247 0.0 0.0 0.00 0.00 0.00 88 1057.0
20260903071149 18 247 9.7 0.0 0.00 0.00 0.00 88 1056.9
20260903071037 18 270 3.2 0.0 0.00 0.00 0.00 88 1057.0
20260903070932 18 247 3.2 0.0 0.00 0.00 0.00 88 1057.0
20260903070810 18 292 4.8 0.0 0.00 0.00 0.00 88 1056.9
20260903070656 18 270 12.9 0.0 0.00 0.00 0.00 88 1056.9
20260903070536 18 247 9.7 0.0 0.00 0.00 0.00 88 1056.8
20260903070423 18 202 12.9 0.0 0.00 0.00 0.00 88 1056.9
20260903070254 18 157 6.4 0.0 0.00 0.00 0.00 88 1057.0
20260903070143 18 225 12.9 0.0 0.00 0.00 0.00 88 1057.0
20260903070036 18 157 3.2 0.0 0.00 0.00 0.00 88 1056.9
20260903065931 18 225 11.3 0.0 0.00 0.00 0.00 88 1056.9
20260903065826 18 202 9.7 0.0 0.00 0.00 0.00 88 1057.1
20260903065713 18 180 8.0 0.0 0.00 0.00 0.00 88 1057.0
20260903065600 18 180 11.3 0.0 0.00 0.00 0.00 88 1057.0
20260903065454 18 270 8.0 0.0 0.00 0.00 0.00 88 1057.0
20260903065340 18 225 3.2 0.0 0.00 0.00 0.00 88 1056.9
20260903065228 18 225 9.7 0.0 0.00 0.00 0.00 88 1056.9
20260903065106 17 180 9.7 0.0 0.00 0.00 0.00 88 1057.0
20260903064945 18 225 4.8 0.0 0.00 0.00 0.00 88 1057.0
20260903064832 17 202 20.9 0.0 0.00 0.00 0.00 88 1056.9
20260903064718 17 247 8.0 0.0 0.00 0.00 0.00 88 1057.0
20260903064606 17 225 14.5 0.0 0.00 0.00 0.00 88 1057.1
20260903062733 17 180 12.9 0.0 0.00 0.00 0.00 88 1056.8
20260903062629 17 225 14.5 0.0 0.00 0.00 0.00 88 1056.8
20260903062515 17 202 3.2 0.0 0.00 0.00 0.00 88 1056.8
20260903062353 17 225 11.3 0.0 0.00 0.00 0.00 88 1056.8
20260903062242 17 225 9.7 0.0 0.00 0.00 0.00 88 1056.8
20260903062135 17 225 20.9 0.0 0.00 0.00 0.00 88 1056.8
20260903061958 17 225 17.7 0.0 0.00 0.00 0.00 88 1056.8
20260903061837 17 225 4.8 0.0 0.00 0.00 0.00 88 1056.8
20260903061710 17 270 9.7 0.0 0.00 0.00 0.00 88 1056.8
20260903061604 17 202 17.7 0.0 0.00 0.00 0.00 88 1056.8
20260903061450 17 180 11.3 0.0 0.00 0.00 0.00 88 1056.8
20260903061338 17 225 11.3 0.0 0.00 0.00 0.00 89 1056.8
20260903061234 17 225 11.3 0.0 0.00 0.00 0.00 89 1056.9
20260903061128 17 180 29.0 0.0 0.00 0.00 0.00 89 1056.8
20260903061024 17 270 6.4 0.0 0.00 0.00 0.00 89 1056.8
20260903060916 17 247 11.3 0.0 0.00 0.00 0.00 89 1056.8
20260903060806 17 180 12.9 0.0 0.00 0.00 0.00 89 1057.0
20260903060658 17 247 9.7 0.0 0.00 0.00 0.00 89 1056.9
20260903060537 17 225 17.7 0.0 0.00 0.00 0.00 89 1056.8
20260903060415 17 180 14.5 0.0 0.00 0.00 0.00 89 1056.9
20260903060239 17 225 19.3 0.0 0.00 0.00 0.00 89 1056.9
20260903060135 17 225 12.9 0.0 0.00 0.00 0.00 89 1056.9
20260903060028 17 202 11.3 0.0 0.00 0.00 0.00 89 1056.9
20260903055922 17 180 12.9 0.0 0.00 0.00 0.00 89 1057.0
20260903055817 17 157 12.9 0.0 0.00 0.00 0.00 89 1057.1
20260903055711 17 180 8.0 0.0 0.00 0.00 0.00 89 1057.1
20260903055606 17 180 20.9 0.0 0.00 0.00 0.00 89 1057.0
20260903055500 17 202 12.9 0.0 0.00 0.00 0.00 89 1057.1
20260903055354 17 270 4.8 0.0 0.00 0.00 0.00 89 1057.1
20260903055248 17 180 6.4 0.0 0.00 0.00 0.00 89 1057.2
20260903055143 17 247 14.5 0.0 0.00 0.00 0.00 89 1057.2
20260903055029 17 202 4.8 0.0 0.00 0.00 0.00 89 1057.1
20260903054907 17 180 14.5 0.0 0.00 0.00 0.00 89 1057.2
20260903054752 17 180 12.9 0.0 0.00 0.00 0.00 89 1057.2
20260903054623 17 180 6.4 0.0 0.00 0.00 0.00 89 1057.3
20260903054509 17 225 6.4 0.0 0.00 0.00 0.00 89 1057.1
20260903054358 17 202 9.7 0.0 0.00 0.00 0.00 89 1057.2
20260903054250 17 292 4.8 0.0 0.00 0.00 0.00 89 1057.2
20260903054131 17 225 6.4 0.0 0.00 0.00 0.00 89 1057.1
20260903054016 17 180 9.7 0.0 0.00 0.00 0.00 89 1057.3
20260903053733 17 225 20.9 0.0 0.00 0.00 0.00 89 1057.1
20260903053531 17 270 6.4 0.0 0.00 0.00 0.00 89 1057.2
20260903053354 17 247 12.9 0.0 0.00 0.00 0.00 89 1057.3
20260903053224 17 180 19.3 0.0 0.00 0.00 0.00 90 1057.3
20260903053102 17 225 6.4 0.0 0.00 0.00 0.00 90 1057.2
20260903052924 17 202 6.4 0.0 0.00 0.00 0.00 90 1057.3
20260903052755 17 180 19.3 0.0 0.00 0.00 0.00 90 1057.3
20260903052636 17 202 11.3 0.0 0.00 0.00 0.00 90 1057.3
20260903052527 17 247 14.5 0.0 0.00 0.00 0.00 90 1057.2
20260903052406 17 180 8.0 0.0 0.00 0.00 0.00 90 1057.3
20260903052255 16 180 9.7 0.0 0.00 0.00 0.00 90 1057.3
20260903052148 16 225 183.5 0.0 0.00 0.00 0.00 90 1057.3
20260903051518 16 225 183.5 0.0 0.00 0.00 0.00 91 1057.2
20260903050848 16 225 12.9 0.0 0.00 0.00 0.00 91 1057.4
20260903050412 16 225 9.7 0.0 0.00 0.00 0.00 91 1057.1
20260903050242 16 225 8.0 0.0 0.00 0.00 0.00 91 1057.2
20260903050121 16 247 9.7 0.0 0.00 0.00 0.00 91 1057.2
20260903045926 16 225 4.8 0.0 0.00 0.00 0.00 91 1057.1
20260903045757 16 202 11.3 0.0 0.00 0.00 0.00 91 1057.2
20260903045651 16 202 6.4 0.0 0.00 0.00 0.00 91 1057.2
20260903045539 16 225 8.0 0.0 0.00 0.00 0.00 91 1057.3
20260903045425 16 202 16.1 0.0 0.00 0.00 0.00 91 1057.3
20260903045313 16 202 12.9 0.0 0.00 0.00 0.00 91 1057.3
20260903045209 16 180 9.7 0.0 0.00 0.00 0.00 91 1057.3
20260903045100 16 180 22.5 0.0 0.00 0.00 0.00 91 1057.4
20260903044946 16 202 0.0 0.0 0.00 0.00 0.00 91 1057.4
20260903044839 16 247 9.7 0.0 0.00 0.00 0.00 91 1057.3
20260903044728 16 202 11.3 0.0 0.00 0.00 0.00 91 1057.2
20260903044619 16 157 6.4 0.0 0.00 0.00 0.00 91 1057.2
20260903044459 16 202 11.3 0.0 0.00 0.00 0.00 91 1057.1
20260903044353 16 247 14.5 0.0 0.00 0.00 0.00 91 1057.3
20260903044245 16 202 9.7 0.0 0.00 0.00 0.00 91 1057.2
20260903044130 16 180 4.8 0.0 0.00 0.00 0.00 91 1057.2
20260903044000 16 180 6.4 0.0 0.00 0.00 0.00 91 1057.4
20260903043846 16 225 0.0 0.0 0.00 0.00 0.00 91 1057.3
20260903043739 16 225 9.7 0.0 0.00 0.00 0.00 91 1057.4
20260903043609 16 180 9.7 0.0 0.00 0.00 0.00 91 1057.4
20260903043455 16 180 9.7 0.0 0.00 0.00 0.00 91 1057.3
20260903043347 16 157 6.4 0.0 0.00 0.00 0.00 92 1057.3
20260903043227 16 202 9.7 0.0 0.00 0.00 0.00 91 1057.3
20260903043113 16 202 8.0 0.0 0.00 0.00 0.00 92 1057.4
20260903042959 16 202 22.5 0.0 0.00 0.00 0.00 91 1057.4
20260903042854 16 180 8.0 0.0 0.00 0.00 0.00 91 1057.4
20260903042746 16 202 17.7 0.0 0.00 0.00 0.00 91 1057.3
20260903042616 16 202 11.3 0.0 0.00 0.00 0.00 91 1057.4
20260903042502 16 180 11.3 0.0 0.00 0.00 0.00 91 1057.4
20260903042355 16 202 11.3 0.0 0.00 0.00 0.00 91 1057.5
20260903042235 16 225 12.9 0.0 0.00 0.00 0.00 91 1057.5
20260903042119 16 225 12.9 0.0 0.00 0.00 0.00 91 1057.6
20260903042005 16 202 12.9 0.0 0.00 0.00 0.00 91 1057.6
20260903041859 16 202 14.5 0.0 0.00 0.00 0.00 91 1057.6
20260903041744 16 270 9.7 0.0 0.00 0.00 0.00 91 1057.6
20260903041621 16 157 4.8 0.0 0.00 0.00 0.00 91 1057.6
20260903041508 16 180 22.5 0.0 0.00 0.00 0.00 91 1057.6
20260903041400 16 180 19.3 0.0 0.00 0.00 0.00 91 1057.6
20260903041249 16 157 14.5 0.0 0.00 0.00 0.00 91 1057.7
20260903041143 16 180 20.9 0.0 0.00 0.00 0.00 91 1057.6
20260903041026 16 202 14.5 0.0 0.00 0.00 0.00 91 1057.7
20260903040905 16 202 8.0 0.0 0.00 0.00 0.00 91 1057.7
20260903040758 16 247 8.0 0.0 0.00 0.00 0.00 91 1057.6
20260903040628 16 247 9.7 0.0 0.00 0.00 0.00 91 1057.6
20260903040513 16 247 3.2 0.0 0.00 0.00 0.00 91 1057.7
20260903040359 16 157 11.3 0.0 0.00 0.00 0.00 91 1057.7
20260903040237 16 202 9.7 0.0 0.00 0.00 0.00 91 1057.7
20260903040123 16 180 4.8 0.0 0.00 0.00 0.00 91 1057.7
20260903040017 16 135 17.7 0.0 0.00 0.00 0.00 91 1057.7
20260903035911 16 247 8.0 0.0 0.00 0.00 0.00 91 1057.7
20260903035805 16 225 11.3 0.0 0.00 0.00 0.00 91 1057.8
20260903035658 16 180 22.5 0.0 0.00 0.00 0.00 91 1057.7
20260903035537 16 157 6.4 0.0 0.00 0.00 0.00 91 1057.7
20260903035423 16 180 9.7 0.0 0.00 0.00 0.00 91 1057.8
20260903035316 16 202 22.5 0.0 0.00 0.00 0.00 91 1057.8
20260903035202 16 180 11.3 0.0 0.00 0.00 0.00 91 1057.8
20260903035056 16 247 9.7 0.0 0.00 0.00 0.00 91 1057.8
20260903034941 16 225 6.4 0.0 0.00 0.00 0.00 91 1057.8
20260903034819 16 247 11.3 0.0 0.00 0.00 0.00 90 1057.8
20260903034705 16 180 8.0 0.0 0.00 0.00 0.00 90 1057.9
20260903034546 16 247 6.4 0.0 0.00 0.00 0.00 90 1057.9
20260903034439 16 225 9.7 0.0 0.00 0.00 0.00 90 1057.9
20260903034331 16 225 19.3 0.0 0.00 0.00 0.00 90 1057.9
20260903034210 16 157 22.5 0.0 0.00 0.00 0.00 90 1057.9
20260903034051 16 180 19.3 0.0 0.00 0.00 0.00 90 1058.0
20260903033936 16 202 9.7 0.0 0.00 0.00 0.00 89 1058.0
20260903033822 16 180 12.9 0.0 0.00 0.00 0.00 89 1058.1
20260903033712 16 225 12.9 0.0 0.00 0.00 0.00 89 1058.1
20260903033607 16 180 17.7 0.0 0.00 0.00 0.00 89 1058.1
20260903033452 16 202 9.7 0.0 0.00 0.00 0.00 89 1058.0
20260903033338 16 180 12.9 0.0 0.00 0.00 0.00 89 1058.1
20260903033217 16 225 12.9 0.0 0.00 0.00 0.00 89 1058.0
20260903033056 16 157 11.3 0.0 0.00 0.00 0.00 89 1058.0
20260903032943 16 180 14.5 0.0 0.00 0.00 0.00 89 1058.1
20260903032821 16 225 24.1 0.0 0.00 0.00 0.00 88 1058.2
20260903032708 16 180 6.4 0.0 0.00 0.00 0.00 88 1058.2
20260903032555 16 202 3.2 0.0 0.00 0.00 0.00 88 1058.3
20260903032442 16 270 6.4 0.0 0.00 0.00 0.00 88 1058.2
20260903032329 16 202 12.9 0.0 0.00 0.00 0.00 88 1058.2
20260903032216 16 225 17.7 0.0 0.00 0.00 0.00 88 1058.3
20260903032103 16 180 16.1 0.0 0.00 0.00 0.00 88 1058.3
20260903031958 16 202 16.1 0.0 0.00 0.00 0.00 88 1058.2
20260903031839 16 202 9.7 0.0 0.00 0.00 0.00 88 1058.3
20260903031732 16 180 9.7 0.0 0.00 0.00 0.00 88 1058.2
20260903031620 16 247 12.9 0.0 0.00 0.00 0.00 87 1058.3
20260903031513 16 225 4.8 0.0 0.00 0.00 0.00 87 1058.4
20260903031352 16 225 14.5 0.0 0.00 0.00 0.00 87 1058.2
20260903031241 16 180 19.3 0.0 0.00 0.00 0.00 87 1058.3
20260903031133 16 157 11.3 0.0 0.00 0.00 0.00 87 1058.3
20260903031024 16 180 6.4 0.0 0.00 0.00 0.00 87 1058.5
20260903030916 16 202 20.9 0.0 0.00 0.00 0.00 87 1058.3
20260903030802 16 225 20.9 0.0 0.00 0.00 0.00 87 1058.3
20260903030650 16 180 17.7 0.0 0.00 0.00 0.00 87 1058.3
20260903030536 16 225 9.7 0.0 0.00 0.00 0.00 87 1058.5
20260903030415 16 202 12.9 0.0 0.00 0.00 0.00 87 1058.3
20260903030304 16 157 9.7 0.0 0.00 0.00 0.00 87 1058.3
20260903030157 16 180 9.7 0.0 0.00 0.00 0.00 87 1058.2
20260903030044 16 157 3.2 0.0 0.00 0.00 0.00 87 1058.3
20260903025922 16 202 9.7 0.0 0.00 0.00 0.00 87 1058.3
20260903025811 16 225 8.0 0.0 0.00 0.00 0.00 87 1058.4
20260903025707 16 157 8.0 0.0 0.00 0.00 0.00 87 1058.4
20260903025600 16 202 27.4 0.0 0.00 0.00 0.00 87 1058.5
20260903025438 16 202 9.7 0.0 0.00 0.00 0.00 87 1058.5
20260903025325 16 157 6.4 0.0 0.00 0.00 0.00 87 1058.5
20260903025214 16 202 11.3 0.0 0.00 0.00 0.00 87 1058.6
20260903025107 16 225 11.3 0.0 0.00 0.00 0.00 87 1058.6
20260903024954 16 180 9.7 0.0 0.00 0.00 0.00 87 1058.6
20260903024832 16 180 9.7 0.0 0.00 0.00 0.00 87 1058.6
20260903024721 16 157 14.5 0.0 0.00 0.00 0.00 87 1058.7
20260903024616 16 292 0.0 0.0 0.00 0.00 0.00 87 1058.7
20260903024510 16 202 8.0 0.0 0.00 0.00 0.00 87 1058.6
20260903024359 16 225 6.4 0.0 0.00 0.00 0.00 87 1058.7
20260903024253 16 247 8.0 0.0 0.00 0.00 0.00 87 1058.7
20260903024146 16 202 16.1 0.0 0.00 0.00 0.00 87 1058.6
20260903024034 16 180 16.1 0.0 0.00 0.00 0.00 87 1058.6
20260903023919 16 180 20.9 0.0 0.00 0.00 0.00 87 1058.7
20260903023800 16 202 6.4 0.0 0.00 0.00 0.00 87 1058.7
20260903023646 16 202 20.9 0.0 0.00 0.00 0.00 87 1058.7
20260903023533 16 225 11.3 0.0 0.00 0.00 0.00 87 1058.7
20260903023419 16 247 4.8 0.0 0.00 0.00 0.00 87 1058.7
20260903023258 16 180 20.9 0.0 0.00 0.00 0.00 87 1058.7
20260903023137 16 180 11.3 0.0 0.00 0.00 0.00 87 1058.8
20260903023015 16 180 9.7 0.0 0.00 0.00 0.00 87 1058.9
20260903022903 16 180 6.4 0.0 0.00 0.00 0.00 87 1058.9
20260903022758 16 247 9.7 0.0 0.00 0.00 0.00 87 1058.9
20260903022645 16 202 14.5 0.0 0.00 0.00 0.00 87 1059.0
20260903022541 16 225 16.1 0.0 0.00 0.00 0.00 87 1058.9
20260903022426 16 180 8.0 0.0 0.00 0.00 0.00 87 1059.0
20260903022316 16 135 8.0 0.0 0.00 0.00 0.00 87 1058.9
20260903022208 16 202 17.7 0.0 0.00 0.00 0.00 87 1059.0
20260903022057 16 202 11.3 0.0 0.00 0.00 0.00 87 1059.1
20260903021951 16 202 6.4 0.0 0.00 0.00 0.00 87 1059.0
20260903021846 16 135 19.3 0.0 0.00 0.00 0.00 87 1059.0
20260903021740 16 247 6.4 0.0 0.00 0.00 0.00 87 1059.0
20260903021626 16 180 0.0 0.0 0.00 0.00 0.00 87 1059.0
20260903021513 16 225 11.3 0.0 0.00 0.00 0.00 87 1059.0
20260903021403 16 202 9.7 0.0 0.00 0.00 0.00 87 1059.0
20260903021256 16 180 1.6 0.0 0.00 0.00 0.00 87 1058.9
20260903021143 16 202 0.0 0.0 0.00 0.00 0.00 87 1058.9
20260903021039 16 225 19.3 0.0 0.00 0.00 0.00 87 1059.0
20260903020932 16 225 8.0 0.0 0.00 0.00 0.00 87 1059.0
20260903020807 16 225 16.1 0.0 0.00 0.00 0.00 87 1059.0
20260903020658 16 225 9.7 0.0 0.00 0.00 0.00 87 1059.1
20260903020546 16 157 4.8 0.0 0.00 0.00 0.00 87 1059.1
20260903020441 16 202 19.3 0.0 0.00 0.00 0.00 87 1059.1
20260903020319 16 225 9.7 0.0 0.00 0.00 0.00 87 1059.1
20260903020157 16 202 9.7 0.0 0.00 0.00 0.00 87 1059.1
20260903020039 16 225 3.2 0.0 0.00 0.00 0.00 87 1059.1
20260903015934 16 202 12.9 0.0 0.00 0.00 0.00 87 1059.1
20260903015828 16 157 16.1 0.0 0.00 0.00 0.00 86 1059.1
20260903015721 16 157 19.3 0.0 0.00 0.00 0.00 86 1059.1
20260903015609 16 225 6.4 0.0 0.00 0.00 0.00 86 1059.1
20260903015455 16 247 6.4 0.0 0.00 0.00 0.00 86 1059.1
20260903015337 16 202 19.3 0.0 0.00 0.00 0.00 86 1059.1
20260903015221 16 202 9.7 0.0 0.00 0.00 0.00 86 1059.1
20260903015108 16 157 9.7 0.0 0.00 0.00 0.00 86 1059.2
20260903015003 16 202 8.0 0.0 0.00 0.00 0.00 85 1059.2
20260903014858 17 225 6.4 0.0 0.00 0.00 0.00 85 1059.2
20260903014752 17 225 6.4 0.0 0.00 0.00 0.00 85 1059.2
20260903014646 17 202 12.9 0.0 0.00 0.00 0.00 85 1059.3
20260903014540 17 157 9.7 0.0 0.00 0.00 0.00 85 1059.3
20260903014434 17 202 17.7 0.0 0.00 0.00 0.00 85 1059.3
20260903014321 17 202 17.7 0.0 0.00 0.00 0.00 85 1059.3
20260903014213 17 180 19.3 0.0 0.00 0.00 0.00 85 1059.3
20260903014059 17 135 16.1 0.0 0.00 0.00 0.00 85 1059.3
20260903013945 17 225 9.7 0.0 0.00 0.00 0.00 85 1059.3
20260903013831 17 202 6.4 0.0 0.00 0.00 0.00 85 1059.3
20260903013725 17 225 11.3 0.0 0.00 0.00 0.00 85 1059.5
20260903013619 17 180 11.3 0.0 0.00 0.00 0.00 85 1059.3
20260903013513 17 270 0.0 0.0 0.00 0.00 0.00 85 1059.5
20260903013407 17 202 9.7 0.0 0.00 0.00 0.00 85 1059.4
20260903013302 17 180 12.9 0.0 0.00 0.00 0.00 85 1059.5
20260903013155 17 247 11.3 0.0 0.00 0.00 0.00 85 1059.5
20260903013050 17 202 8.0 0.0 0.00 0.00 0.00 86 1059.5
20260903012944 17 135 0.0 0.0 0.00 0.00 0.00 86 1059.5
20260903012825 17 270 8.0 0.0 0.00 0.00 0.00 86 1059.5
20260903012720 17 180 0.0 0.0 0.00 0.00 0.00 86 1059.5
20260903012615 17 247 17.7 0.0 0.00 0.00 0.00 86 1059.6
20260903012508 17 247 6.4 0.0 0.00 0.00 0.00 86 1059.5
20260903012347 17 247 9.7 0.0 0.00 0.00 0.00 86 1059.6
20260903012242 17 180 20.9 0.0 0.00 0.00 0.00 86 1059.6
20260903012120 17 225 6.4 0.0 0.00 0.00 0.00 86 1059.5
20260903011952 17 157 8.0 0.0 0.00 0.00 0.00 86 1059.5
20260903011847 17 247 3.2 0.0 0.00 0.00 0.00 86 1059.6
20260903011735 17 202 8.0 0.0 0.00 0.00 0.00 86 1059.6
20260903011620 17 225 16.1 0.0 0.00 0.00 0.00 86 1059.6
20260903011507 17 157 9.7 0.0 0.00 0.00 0.00 86 1059.6
20260903011337 17 157 3.2 0.0 0.00 0.00 0.00 86 1059.7
20260903011218 17 202 9.7 0.0 0.00 0.00 0.00 86 1059.7
20260903011112 17 202 16.1 0.0 0.00 0.00 0.00 86 1059.7
20260903011000 17 225 3.2 0.0 0.00 0.00 0.00 86 1059.7
20260903010854 17 180 9.7 0.0 0.00 0.00 0.00 86 1059.8
20260903010741 17 202 4.8 0.0 0.00 0.00 0.00 86 1059.8
20260903010636 17 202 0.0 0.0 0.00 0.00 0.00 86 1059.8
20260903010523 17 202 17.7 0.0 0.00 0.00 0.00 85 1059.8
20260903010416 17 202 9.7 0.0 0.00 0.00 0.00 86 1059.9
20260903010301 17 180 0.0 0.0 0.00 0.00 0.00 86 1059.9
20260903010002 17 180 4.8 0.0 0.00 0.00 0.00 86 1059.9
20260903005855 17 180 11.3 0.0 0.00 0.00 0.00 86 1059.9
20260903005741 17 202 14.5 0.0 0.00 0.00 0.00 86 1059.9
20260903005634 17 225 9.7 0.0 0.00 0.00 0.00 86 1060.0
20260903005529 17 202 11.3 0.0 0.00 0.00 0.00 86 1060.0
20260903005421 17 225 4.8 0.0 0.00 0.00 0.00 85 1060.0
20260903005302 17 225 9.7 0.0 0.00 0.00 0.00 85 1060.0
20260903005154 17 202 12.9 0.0 0.00 0.00 0.00 85 1060.0
20260903005039 17 247 17.7 0.0 0.00 0.00 0.00 85 1060.0
20260903004925 17 157 16.1 0.0 0.00 0.00 0.00 85 1060.0
20260903004819 17 180 16.1 0.0 0.00 0.00 0.00 85 1060.1
20260903004705 17 180 8.0 0.0 0.00 0.00 0.00 85 1060.0
20260903004543 17 202 11.3 0.0 0.00 0.00 0.00 85 1060.1
20260903004429 17 135 4.8 0.0 0.00 0.00 0.00 85 1060.3
20260903004322 17 202 11.3 0.0 0.00 0.00 0.00 85 1060.2
20260903004217 17 202 14.5 0.0 0.00 0.00 0.00 85 1060.3
20260903004111 17 247 14.5 0.0 0.00 0.00 0.00 85 1060.3
20260903004004 17 157 9.7 0.0 0.00 0.00 0.00 85 1060.4
20260903003843 17 225 11.3 0.0 0.00 0.00 0.00 84 1060.3
20260903003728 17 202 3.2 0.0 0.00 0.00 0.00 84 1060.3
20260903003613 17 202 19.3 0.0 0.00 0.00 0.00 84 1060.4
20260903003508 17 202 11.3 0.0 0.00 0.00 0.00 84 1060.3
20260903003402 17 202 19.3 0.0 0.00 0.00 0.00 84 1060.4
20260903003255 17 157 4.8 0.0 0.00 0.00 0.00 84 1060.4
20260903003149 17 202 19.3 0.0 0.00 0.00 0.00 84 1060.4
20260903003029 17 202 8.0 0.0 0.00 0.00 0.00 84 1060.4
20260903002921 17 225 20.9 0.0 0.00 0.00 0.00 84 1060.5
20260903002807 17 180 20.9 0.0 0.00 0.00 0.00 84 1060.4
20260903002652 17 225 9.7 0.0 0.00 0.00 0.00 84 1060.5
20260903002532 17 202 12.9 0.0 0.00 0.00 0.00 85 1060.5
20260903002424 17 157 8.0 0.0 0.00 0.00 0.00 85 1060.5
20260903002311 17 225 11.3 0.0 0.00 0.00 0.00 84 1060.5
20260903002204 17 247 4.8 0.0 0.00 0.00 0.00 85 1060.5
20260903002048 17 270 9.7 0.0 0.00 0.00 0.00 85 1060.6
20260903001937 17 202 11.3 0.0 0.00 0.00 0.00 85 1060.6
20260903001829 17 225 9.7 0.0 0.00 0.00 0.00 85 1060.5
20260903001714 17 135 4.8 0.0 0.00 0.00 0.00 85 1060.6
20260903001553 17 202 4.8 0.0 0.00 0.00 0.00 85 1060.5
20260903001447 17 270 0.0 0.0 0.00 0.00 0.00 85 1060.6
20260903001339 17 225 11.3 0.0 0.00 0.00 0.00 85 1060.6
20260903001218 17 180 6.4 0.0 0.00 0.00 0.00 85 1060.6
20260903001104 17 202 0.0 0.0 0.00 0.00 0.00 85 1060.7
20260903000949 17 202 12.9 0.0 0.00 0.00 0.00 85 1060.6
20260903000818 17 180 8.0 0.0 0.00 0.00 0.00 85 1060.6
20260903000705 17 225 9.7 0.0 0.00 0.00 0.00 85 1060.7
20260903000558 17 180 8.0 0.0 0.00 0.00 0.00 85 1060.7
20260903000454 17 202 8.0 0.0 0.00 0.00 0.00 85 1060.7
20260903000332 17 202 11.3 0.0 0.00 0.00 0.00 85 1060.7
20260903000226 17 202 11.3 0.0 0.00 0.00 0.00 85 1060.8
20260903000110 17 202 17.7 0.0 0.00 0.00 0.00 85 1060.7
20260902235955 17 202 0.0 0.0 0.00 0.00 0.00 85 1060.8
20260902235833 17 180 6.4 0.0 0.00 0.00 0.00 85 1060.8
20260902235727 17 157 0.0 0.0 0.00 0.00 0.00 85 1060.8
20260902235613 17 180 6.4 0.0 0.00 0.00 0.00 85 1060.7
20260902235459 17 202 6.4 0.0 0.00 0.00 0.00 85 1060.8
20260902235352 17 225 12.9 0.0 0.00 0.00 0.00 85 1060.7
20260902235230 17 225 0.0 0.0 0.00 0.00 0.00 85 1060.7
20260902235108 17 180 0.0 0.0 0.00 0.00 0.00 85 1060.8
20260902235002 17 180 4.8 0.0 0.00 0.00 0.00 84 1060.7
20260902234856 17 202 9.7 0.0 0.00 0.00 0.00 84 1060.9
20260902234750 17 202 6.4 0.0 0.00 0.00 0.00 84 1060.8
20260902234644 17 202 8.0 0.0 0.00 0.00 0.00 84 1060.8
20260902234532 17 202 8.0 0.0 0.00 0.00 0.00 84 1060.9
20260902234424 17 180 4.8 0.0 0.00 0.00 0.00 84 1060.9
20260902234305 17 180 0.0 0.0 0.00 0.00 0.00 84 1060.9
20260902234156 17 202 0.0 0.0 0.00 0.00 0.00 84 1060.9
20260902234042 17 225 9.7 0.0 0.00 0.00 0.00 84 1060.9
20260902233936 17 247 8.0 0.0 0.00 0.00 0.00 84 1060.9
20260902233821 17 180 6.4 0.0 0.00 0.00 0.00 84 1060.9
20260902233659 17 202 0.0 0.0 0.00 0.00 0.00 84 1060.9
20260902233548 17 180 3.2 0.0 0.00 0.00 0.00 84 1061.0
20260902233442 17 180 11.3 0.0 0.00 0.00 0.00 84 1061.0
20260902233334 17 225 8.0 0.0 0.00 0.00 0.00 84 1061.0
20260902233227 17 180 9.7 0.0 0.00 0.00 0.00 84 1061.0
20260902233114 17 202 0.0 0.0 0.00 0.00 0.00 84 1061.0
20260902233001 17 202 8.0 0.0 0.00 0.00 0.00 84 1061.1
20260902232839 17 180 8.0 0.0 0.00 0.00 0.00 84 1061.1
20260902232734 17 225 0.0 0.0 0.00 0.00 0.00 84 1061.1
20260902232628 17 202 0.0 0.0 0.00 0.00 0.00 84 1061.1
20260902232515 17 202 9.7 0.0 0.00 0.00 0.00 84 1061.1
20260902232410 17 180 9.7 0.0 0.00 0.00 0.00 84 1061.1
20260902232256 17 180 8.0 0.0 0.00 0.00 0.00 84 1061.2
20260902232143 17 225 19.3 0.0 0.00 0.00 0.00 84 1061.1
20260902232038 17 180 3.2 0.0 0.00 0.00 0.00 84 1061.1
20260902231924 17 270 0.0 0.0 0.00 0.00 0.00 84 1061.1
20260902231801 17 202 3.2 0.0 0.00 0.00 0.00 84 1061.2
20260902231648 17 157 6.4 0.0 0.00 0.00 0.00 84 1061.2
20260902231533 17 180 8.0 0.0 0.00 0.00 0.00 84 1061.2
20260902231403 17 225 0.0 0.0 0.00 0.00 0.00 84 1061.2
20260902231249 17 180 9.7 0.0 0.00 0.00 0.00 84 1061.3
20260902231144 17 202 8.0 0.0 0.00 0.00 0.00 84 1061.2
20260902231037 17 270 9.7 0.0 0.00 0.00 0.00 84 1061.2
20260902230932 17 225 8.0 0.0 0.00 0.00 0.00 84 1061.3
20260902230825 17 202 11.3 0.0 0.00 0.00 0.00 84 1061.2
20260902230720 17 202 8.0 0.0 0.00 0.00 0.00 84 1061.2
20260902230614 17 225 4.8 0.0 0.00 0.00 0.00 84 1061.3
20260902230507 17 225 11.3 0.0 0.00 0.00 0.00 84 1061.3
20260902230353 17 202 0.0 0.0 0.00 0.00 0.00 84 1061.2
20260902230231 17 202 9.7 0.0 0.00 0.00 0.00 84 1061.3
20260902230117 17 225 9.7 0.0 0.00 0.00 0.00 83 1061.3
20260902230011 17 180 12.9 0.0 0.00 0.00 0.00 84 1061.4
20260902225905 17 180 0.0 0.0 0.00 0.00 0.00 84 1061.3
20260902225758 17 202 4.8 0.0 0.00 0.00 0.00 84 1061.5
20260902225644 17 180 14.5 0.0 0.00 0.00 0.00 84 1061.5
20260902225529 17 202 0.0 0.0 0.00 0.00 0.00 83 1061.3
20260902225409 17 180 8.0 0.0 0.00 0.00 0.00 83 1061.5
20260902225306 17 202 11.3 0.0 0.00 0.00 0.00 83 1061.4
20260902225158 17 247 6.4 0.0 0.00 0.00 0.00 83 1061.5
20260902225053 17 225 4.8 0.0 0.00 0.00 0.00 83 1061.6
20260902224948 17 180 6.4 0.0 0.00 0.00 0.00 83 1061.4
20260902224825 17 202 8.0 0.0 0.00 0.00 0.00 83 1061.5
20260902224715 17 202 8.0 0.0 0.00 0.00 0.00 83 1061.6
20260902224607 17 180 6.4 0.0 0.00 0.00 0.00 83 1061.6
20260902224454 17 225 9.7 0.0 0.00 0.00 0.00 83 1061.6
20260902224349 17 202 8.0 0.0 0.00 0.00 0.00 84 1061.6
20260902224227 17 225 14.5 0.0 0.00 0.00 0.00 83 1061.7
20260902224121 17 202 0.0 0.0 0.00 0.00 0.00 83 1061.6
20260902224016 17 202 0.0 0.0 0.00 0.00 0.00 84 1061.7
20260902223902 17 180 16.1 0.0 0.00 0.00 0.00 84 1061.7
20260902223748 17 225 3.2 0.0 0.00 0.00 0.00 84 1061.7
20260902223634 17 180 19.3 0.0 0.00 0.00 0.00 84 1061.7
20260902223520 17 157 3.2 0.0 0.00 0.00 0.00 84 1061.7
20260902223406 17 202 8.0 0.0 0.00 0.00 0.00 84 1061.7
20260902223253 17 270 4.8 0.0 0.00 0.00 0.00 84 1061.8
20260902223147 17 270 0.0 0.0 0.00 0.00 0.00 84 1061.8
20260902223040 17 225 11.3 0.0 0.00 0.00 0.00 84 1061.7
20260902222911 17 202 16.1 0.0 0.00 0.00 0.00 84 1061.7
20260902222757 17 225 12.9 0.0 0.00 0.00 0.00 84 1061.7
20260902222634 17 202 12.9 0.0 0.00 0.00 0.00 84 1061.8
20260902222513 17 202 3.2 0.0 0.00 0.00 0.00 84 1061.7
20260902222351 17 225 12.9 0.0 0.00 0.00 0.00 84 1061.8
20260902222236 17 180 8.0 0.0 0.00 0.00 0.00 84 1061.9
20260902222123 17 225 3.2 0.0 0.00 0.00 0.00 84 1062.0
20260902222010 17 202 0.0 0.0 0.00 0.00 0.00 84 1061.8
20260902221849 17 225 12.9 0.0 0.00 0.00 0.00 84 1061.9
20260902221745 17 202 9.7 0.0 0.00 0.00 0.00 84 1061.9
20260902221639 17 247 9.7 0.0 0.00 0.00 0.00 84 1062.0
20260902221525 17 180 9.7 0.0 0.00 0.00 0.00 84 1061.9
20260902221405 17 225 8.0 0.0 0.00 0.00 0.00 83 1062.0
20260902221257 17 202 0.0 0.0 0.00 0.00 0.00 83 1062.0
20260902221136 17 202 4.8 0.0 0.00 0.00 0.00 83 1062.0
20260902221030 17 180 4.8 0.0 0.00 0.00 0.00 83 1061.9
20260902220916 17 202 0.0 0.0 0.00 0.00 0.00 83 1061.9
20260902220804 17 202 6.4 0.0 0.00 0.00 0.00 83 1061.9
20260902220657 17 202 4.8 0.0 0.00 0.00 0.00 83 1061.9
20260902220544 17 202 0.0 0.0 0.00 0.00 0.00 83 1061.9
20260902220431 17 202 4.8 0.0 0.00 0.00 0.00 84 1061.8
20260902220326 17 180 8.0 0.0 0.00 0.00 0.00 84 1061.9
20260902220213 17 180 8.0 0.0 0.00 0.00 0.00 84 1062.0
20260902220101 16 225 0.0 0.0 0.00 0.00 0.00 84 1061.8
20260902215954 16 225 9.7 0.0 0.00 0.00 0.00 84 1061.8
20260902215833 16 202 9.7 0.0 0.00 0.00 0.00 84 1061.9
20260902215712 16 225 11.3 0.0 0.00 0.00 0.00 84 1061.9
20260902215559 16 202 9.7 0.0 0.00 0.00 0.00 84 1061.9
20260902215446 16 202 9.7 0.0 0.00 0.00 0.00 84 1062.0
20260902215341 16 180 0.0 0.0 0.00 0.00 0.00 84 1061.9
20260902215219 16 202 12.9 0.0 0.00 0.00 0.00 84 1062.0
20260902215058 16 180 9.7 0.0 0.00 0.00 0.00 84 1062.1
20260902214939 16 202 3.2 0.0 0.00 0.00 0.00 84 1061.9
20260902214832 16 225 8.0 0.0 0.00 0.00 0.00 84 1061.9
20260902214729 16 202 8.0 0.0 0.00 0.00 0.00 84 1061.8
20260902214621 16 202 6.4 0.0 0.00 0.00 0.00 84 1062.0
20260902214509 16 202 6.4 0.0 0.00 0.00 0.00 83 1062.0
20260902214404 16 180 0.0 0.0 0.00 0.00 0.00 83 1061.9
20260902214253 16 180 3.2 0.0 0.00 0.00 0.00 83 1061.9
20260902214145 16 225 0.0 0.0 0.00 0.00 0.00 83 1061.9
20260902214033 16 180 6.4 0.0 0.00 0.00 0.00 83 1062.0
20260902213920 16 157 9.7 0.0 0.00 0.00 0.00 83 1061.9
20260902213750 16 202 6.4 0.0 0.00 0.00 0.00 83 1062.1
20260902213630 16 202 9.7 0.0 0.00 0.00 0.00 83 1062.0
20260902213523 16 202 6.4 0.0 0.00 0.00 0.00 82 1062.0
20260902213411 16 225 9.7 0.0 0.00 0.00 0.00 82 1062.0
20260902213305 17 202 0.0 0.0 0.00 0.00 0.00 82 1062.1
20260902213145 17 202 11.3 0.0 0.00 0.00 0.00 82 1062.1
20260902213031 16 202 4.8 0.0 0.00 0.00 0.00 82 1062.0
20260902212856 17 202 9.7 0.0 0.00 0.00 0.00 82 1062.0
20260902212749 17 202 0.0 0.0 0.00 0.00 0.00 82 1062.1
20260902212627 17 202 3.2 0.0 0.00 0.00 0.00 82 1062.0
20260902212458 17 202 6.4 0.0 0.00 0.00 0.00 82 1062.1
20260902212353 17 202 6.4 0.0 0.00 0.00 0.00 82 1062.1
20260902212240 17 202 3.2 0.0 0.00 0.00 0.00 82 1062.1
20260902212127 17 225 0.0 0.0 0.00 0.00 0.00 83 1062.1
20260902212014 17 225 3.2 0.0 0.00 0.00 0.00 83 1062.0
20260902211909 17 202 8.0 0.0 0.00 0.00 0.00 83 1062.1
20260902211756 17 180 0.0 0.0 0.00 0.00 0.00 83 1062.1
20260902211649 17 225 8.0 0.0 0.00 0.00 0.00 83 1062.1
20260902211539 17 225 3.2 0.0 0.00 0.00 0.00 83 1062.1
20260902211433 17 202 9.7 0.0 0.00 0.00 0.00 83 1062.0
20260902211327 17 202 8.0 0.0 0.00 0.00 0.00 83 1062.1
20260902211215 17 202 6.4 0.0 0.00 0.00 0.00 83 1062.2
20260902211053 17 202 6.4 0.0 0.00 0.00 0.00 83 1062.1
20260902210940 17 202 9.7 0.0 0.00 0.00 0.00 83 1062.1
20260902210827 17 180 4.8 0.0 0.00 0.00 0.00 83 1062.0
20260902210714 17 180 8.0 0.0 0.00 0.00 0.00 83 1062.1
20260902210601 17 202 6.4 0.0 0.00 0.00 0.00 83 1062.1
20260902210455 17 225 3.2 0.0 0.00 0.00 0.00 83 1062.1
20260902210344 17 180 6.4 0.0 0.00 0.00 0.00 83 1062.2
20260902210229 17 202 0.0 0.0 0.00 0.00 0.00 83 1062.1
20260902210108 17 180 6.4 0.0 0.00 0.00 0.00 82 1062.1
20260902205955 17 202 8.0 0.0 0.00 0.00 0.00 82 1062.2